Notices

What's New in latest Release from April 7th, 2021:

- Updated Glossary, including Speed of Maximum Gust, and Total Hourly Precipitation

- Updated national and regional climate services offices contacts and prices information

- Addition of station inventory lists for 1981-2010, 1971-2000, and 1961-1990 Normals.

If you haven't already, please take our survey and provide feedback about our website: https://eccc.sondage-survey.ca/f/LanguageSelection.aspx?s=442ca660-fcf1-47c0-95a9-59707d6fd709

Hourly Data Report for September 18, 2019

TORONTO CITY
ONTARIO
Current Station Operator: ECCC - MSC

43°40'00.000" N
79°24'00.000" W
112.50 m
6158355
71508
XTO

Download Data

Hourly Data (September 2019)
Hourly Data Report for September 18, 2019
TIME
LST
Temp Definition
°C
Dew Point Definition
°C
Rel Hum Definition
%
Precip. Amount Definition
mm

Wind Dir Definition
10's deg

Wind Spd Definition
km/h
Visibility Definition
km
Stn Press Definition
kPa
Hmdx Definition


Wind Chill Definition


Weather Definition


00:00 15.3 10.8 75 0.0       101.00     LegendNANA
01:00 14.9 10.5 75 0.0       101.01     LegendNANA
02:00 15.2 9.8 71 0.0       100.98     LegendNANA
03:00 14.5 9.8 73 0.0       100.99     LegendNANA
04:00 14.1 10.3 78 0.0       100.99     LegendNANA
05:00 14.2 10.3 77 0.0       101.03     LegendNANA
06:00 14.3 10.2 76 0.0       101.07     LegendNANA
07:00 15.3 10.7 74 0.0       101.10     LegendNANA
08:00 17.8 12.9 73 0.0       101.13     LegendNANA
09:00 19.5 11.7 61 0.0       101.16     LegendNANA
10:00 20.2 11.6 58 0.0       101.17     LegendNANA
11:00 20.3 8.4 46 0.0       101.19     LegendNANA
12:00 21.9 8.6 43 0.0       101.21     LegendNANA
13:00 22.1 7.5 39 0.0       101.21     LegendNANA
14:00 21.6 6.8 38 0.0       101.19     LegendNANA
15:00 22.0 7.9 40 0.0       101.16     LegendNANA
16:00 21.1 9.7 48 0.0       101.14     LegendNANA
17:00 19.6 11.3 59 0.0       101.13     LegendNANA
18:00 19.1 11.3 61 0.0       101.10     LegendNANA
19:00 18.6 11.4 63 0.0       101.12     LegendNANA
20:00 18.5 12.1 66 0.0       101.12     LegendNANA
21:00 18.3 12.6 70 0.0       101.13     LegendNANA
22:00 18.3 12.8 70 0.0       101.12     LegendNANA
23:00 18.3 10.9 62 0.0       101.06     LegendNANA

Notes on Data Quality.

Legend

  • E = Estimated
  • M = Missing
  • NA = Not Available*
  • [empty] = Indicates an unobserved value
Date modified: